Regional Weather Roundup
Issued by NWS

Home | Current Version | Previous Version | Text Only | Print | Product List | Glossary On
Versions: 1 2 3 4 5 6 7 8 9 10 11 12 13 14 15 16 17 18 19 20 21 22 23 24 25 26 27 28 29 30 31 32 33 34 35 36 37 38 39 40 41 42 43 44 45 46 47 48 49 50
000
ASUS43 KDMX 032206
RWRIA

WEATHER ROUNDUP FOR IOWA
NATIONAL WEATHER SERVICE DES MOINES IA
400 PM CST SAT DEC 03 2022

NOTE: "FAIR" INDICATES FEW OR NO CLOUDS BELOW 12,000 FEET WITH NO
SIGNIFICANT WEATHER AND/OR OBSTRUCTIONS TO VISIBILITY.

* - THESE STATIONS ARE NOT NWS STATIONS...THUS NOT UNDER NWS
QUALITY CONTROL.  THEY ALSO DO NOT REPORT WEATHER SUCH
AS PRECIPITATION OR FOG.

IAZ001>003-012>014-020>022-031>034-043>046-032300-
   NORTHWEST IOWA

CITY           SKY/WX    TMP DP  RH WIND       PRES   REMARKS
CARROLL *      CLEAR     28   7  40 SW9       30.39S WCI  20
CHEROKEE *     PTCLDY    27  12  53 S8        30.35  WCI  19
DENISON *      PTCLDY    28   7  40 SW8       30.40R WCI  20
LE MARS *      PTCLDY    28  12  50 S14       30.31  WCI  17
MAURICE *      FAIR      27  14  59 S15G22    30.29  WCI  15
SHELDON *      PTCLDY    21  16  79 S13       30.27  WCI   9
SIOUX CITY     PTCLDY    32  13  45 S10       30.35F WCI  24
SPENCER        PTCLDY    22  10  60 S8        30.34F WCI  12
STORM LAKE *   PTCLDY    25  10  54 SW9       30.35S WCI  15
$$

IAZ055>058-069>071-079>083-090>094-032300-
   SOUTHWEST IOWA

CITY           SKY/WX    TMP DP  RH WIND       PRES   REMARKS
ATLANTIC *     CLEAR     28   9  43 S15       30.42R WCI  17
AUDUBON *      PTCLDY    28   7  40 CALM      30.42R
CLARINDA *     PTCLDY    27   5  39 SW8       30.50  WCI  18
COUNCIL BLFS * CLEAR     30   3  31 S12       30.39  WCI  21
CRESTON *      CLEAR     28   5  37 SW13      30.43S WCI  18
HARLAN  *      CLEAR     28   9  43 S13G18    30.42  WCI  18
LAMONI         PTCLDY    29   8  41 SW10      30.45S WCI  20
RED OAK *      CLEAR     30   9  40 S14       30.45  WCI  20
SHENANDOAH *   PTCLDY    27   9  46 S9        30.46  WCI  17
$$

IAZ047>049-059>061-072>074-084-032300-
   CENTRAL IOWA

CITY           SKY/WX    TMP DP  RH WIND       PRES   REMARKS
AMES           CLEAR     26   6  42 W7        30.43S WCI  18
ANKENY *       CLEAR     27   5  39 SW5       30.45S WCI  21
BOONE *        CLEAR     27   5  39 SW8       30.43R WCI  18
CHARITON *     PTCLDY    28   7  40 SW6       30.44S WCI  22
DES MOINES     MOCLDY    27   6  41 SW7       30.44F WCI  19
GRINNELL*      CLEAR     26   8  45 W8        30.44F WCI  18
KNOXVILLE *    PTCLDY    27   5  39 SW7       30.45S WCI  19
MARSHALLTOWN   CLEAR     24   5  44 W9        30.42F WCI  14
NEWTON *       CLEAR     25   5  42 SW6       30.43F WCI  18
PELLA *        PTCLDY    26   6  44 SW6       30.46S WCI  19
PERRY *        FAIR      28   6  38 S6        30.42S WCI  22
$$

IAZ004>006-015-016-023>025-035-036-032300-
   NORTH CENTRAL IOWA

CITY           SKY/WX    TMP DP  RH WIND       PRES   REMARKS
ALGONA *       CLEAR     19  12  73 S5        30.35F WCI  13
CLARION *      CLEAR     23  10  58 SW7       30.39F WCI  15
ESTHERVILLE    PTCLDY    19   9  65 S7        30.33F WCI  10
FORT DODGE *   PTCLDY    26   9  48 SW6       30.40S WCI  19
MASON CITY     PTCLDY    19   7  59 W7        30.40S WCI  10
FOREST CITY *  FAIR      19   9  63 SW3       30.38S
WEBSTER CITY * PTCLDY    27   7  43 SW7       30.39S WCI  19
IOWA FALLS *   FAIR      26  10  51 W9        30.43R WCI  16
$$

IAZ007>011-017>019-026>030-037>042-050>054-066-032300-
   NORTHEAST IOWA

CITY           SKY/WX    TMP DP  RH WIND       PRES   REMARKS
CEDAR RAPIDS   CLEAR     24   6  46 W7        30.43S WCI  16
CHARLES CITY * CLEAR     21   9  58 W8        30.41  WCI  12
CLINTON *      CLEAR     24   9  52 W13       30.44S WCI  12
DECORAH *      CLEAR     19   7  58 VRB6G13   30.39  WCI  11
DUBUQUE        CLEAR     22   6  50 W12       30.39F WCI  10
OELWEIN *      CLEAR     19   5  53 W10       30.42  WCI   8
WATERLOO       PTCLDY    23   5  46 W8        30.43R WCI  14
$$

IAZ064-065-067-068-078-032300-
   EAST CENTRAL IOWA

CITY           SKY/WX    TMP DP  RH WIND       PRES   REMARKS
DAVENPORT      CLEAR     26   7  44 W13       30.46S WCI  15
IOWA CITY      CLEAR     26   7  44 W10       30.47S WCI  16
MUSCATINE *    CLEAR     27   7  43 W7        30.48  WCI  19
QUAD CITIES    CLEAR     29   8  41 W6        30.44F WCI  23
$$

IAZ062-063-075>077-085>089-095>099-032300-
   SOUTHEAST IOWA

CITY           SKY/WX    TMP DP  RH WIND       PRES   REMARKS
BURLINGTON     CLEAR     28   8  43 W5        30.47F WCI  23
FAIRFIELD *      N/A     23   3  42 SW3       30.47
FORT MADISON *   N/A     28  10  47 W5        30.47  WCI  23
KEOKUK *       CLEAR     28  10  47 W8        30.49  WCI  20
OSKALOOSA *    FAIR      28  15  58 W7        30.47R WCI  21
CENTERVILLE *  FAIR      28   5  37 SW7       30.47S WCI  21
OTTUMWA        PTCLDY    24   8  50 SW5       30.46S WCI  18
WASHINGTON *   PTCLDY    25   7  46 W6        30.45  WCI  18
$$

ABBREVIATIONS USED IN REMARKS
   TC - TEMPERATURES IN CELSIUS
  WCI - WIND CHILL INDEX
   HX - HEAT INDEX
  VSB - VISIBILITY
$$




USA.gov is the U.S. government's official web portal to all federal, state and local government web resources and services.